When you browse on this site, cookies collect data to enhance your experience and personalize the content and advertising you see.
Visit our Privacy Policy to learn more. By continuing to use the site, you agree to this use of cookies and data.
  • în România
  • Lista ţărilor
  • Pe 7 zile
  • Temperatura apei
  • Meteo pe hartă
  • Widget-uri
  • user-avatar
    Intrare

    Meteo pe oră la Keflavík

    Astăzi, 20 Noiembrie, Miercuri

    Timp Temperatura Precipitaţii Vânt Presiune Umiditate
    00:00 0°C° 0.2 mm 7 m/s 751 mmHg 76%
    01:00 +1°C° 0.2 mm 6 m/s 751 mmHg 77%
    02:00 0°C° 0 mm 7 m/s 751 mmHg 76%
    03:00 0°C° 0 mm 7 m/s 750 mmHg 75%
    04:00 0°C° 0 mm 7 m/s 750 mmHg 75%
    05:00 0°C° 0 mm 7 m/s 750 mmHg 76%
    06:00 0°C° 0 mm 8 m/s 750 mmHg 77%
    07:00 0°C° 0 mm 8 m/s 750 mmHg 79%
    08:00 0°C° 0.1 mm 9 m/s 750 mmHg 82%
    09:00 0°C° 0.1 mm 9 m/s 750 mmHg 85%
    10:00 0°C° 0.1 mm 10 m/s 750 mmHg 89%
    11:00 +1°C° 0.2 mm 11 m/s 749 mmHg 87%
    12:00 +2°C° 0.2 mm 11 m/s 749 mmHg 86%
    13:00 +3°C° 0.2 mm 12 m/s 749 mmHg 85%
    14:00 +3°C° 0.2 mm 11 m/s 749 mmHg 86%
    15:00 +3°C° 0.2 mm 11 m/s 749 mmHg 88%
    16:00 +2°C° 0.2 mm 10 m/s 749 mmHg 89%
    17:00 +2°C° 0.1 mm 10 m/s 750 mmHg 88%
    18:00 +2°C° 0.1 mm 9 m/s 750 mmHg 87%
    19:00 +1°C° 0.1 mm 9 m/s 750 mmHg 85%
    20:00 +1°C° 0.2 mm 10 m/s 750 mmHg 85%
    21:00 +2°C° 0.2 mm 10 m/s 750 mmHg 85%
    22:00 +2°C° 0.2 mm 11 m/s 750 mmHg 85%
    23:00 +2°C° 0.1 mm 10 m/s 750 mmHg 85%

    Mâine, 21 Noiembrie, Joi

    Timp Temperatura Precipitaţii Vânt Presiune Umiditate
    00:00 +2°C° 0.1 mm 9 m/s 750 mmHg 84%
    01:00 +1°C° 0.1 mm 8 m/s 750 mmHg 84%
    02:00 +2°C° 0.1 mm 9 m/s 749 mmHg 84%
    03:00 +2°C° 0.1 mm 9 m/s 749 mmHg 83%
    04:00 +2°C° 0.1 mm 10 m/s 749 mmHg 83%
    05:00 +2°C° 0.7 mm 10 m/s 749 mmHg 85%
    06:00 +2°C° 0.7 mm 11 m/s 748 mmHg 87%
    07:00 +1°C° 0.7 mm 11 m/s 748 mmHg 89%
    08:00 +2°C° 0.2 mm 10 m/s 748 mmHg 89%
    09:00 +2°C° 0.2 mm 9 m/s 748 mmHg 90%
    10:00 +2°C° 0.2 mm 8 m/s 748 mmHg 91%
    11:00 +2°C° 0 mm 8 m/s 748 mmHg 90%
    12:00 +3°C° 0 mm 7 m/s 747 mmHg 90%
    13:00 +3°C° 0 mm 7 m/s 747 mmHg 90%
    14:00 +2°C° 0.3 mm 8 m/s 747 mmHg 91%
    15:00 +2°C° 0.3 mm 8 m/s 747 mmHg 92%
    16:00 +2°C° 0.3 mm 9 m/s 747 mmHg 93%
    17:00 +3°C° 2.1 mm 9 m/s 748 mmHg 93%
    18:00 +3°C° 2.1 mm 9 m/s 748 mmHg 93%
    19:00 +5°C° 2.1 mm 9 m/s 748 mmHg 93%
    20:00 +5°C° 1.6 mm 10 m/s 748 mmHg 91%
    21:00 +4°C° 1.6 mm 11 m/s 749 mmHg 89%
    22:00 +4°C° 1.6 mm 12 m/s 749 mmHg 87%
    23:00 +4°C° 0.5 mm 12 m/s 749 mmHg 86%

    Poimâine, 22 Noiembrie, Vineri

    Timp Temperatura Precipitaţii Vânt Presiune Umiditate
    00:00 +4°C° 0.5 mm 12 m/s 749 mmHg 85%
    01:00 +4°C° 0.5 mm 12 m/s 750 mmHg 83%
    02:00 +4°C° 0.3 mm 12 m/s 750 mmHg 83%
    03:00 +3°C° 0.3 mm 12 m/s 750 mmHg 83%
    04:00 +3°C° 0.3 mm 11 m/s 751 mmHg 83%
    05:00 +3°C° 0.1 mm 11 m/s 751 mmHg 84%
    06:00 +3°C° 0.1 mm 11 m/s 752 mmHg 85%
    07:00 +3°C° 0.1 mm 11 m/s 752 mmHg 86%
    08:00 +3°C° 0.1 mm 11 m/s 752 mmHg 86%
    09:00 +3°C° 0.1 mm 11 m/s 753 mmHg 86%
    10:00 +3°C° 0.1 mm 10 m/s 753 mmHg 85%
    11:00 +2°C° 0 mm 9 m/s 753 mmHg 86%
    12:00 +2°C° 0 mm 9 m/s 753 mmHg 86%
    13:00 +2°C° 0 mm 8 m/s 753 mmHg 87%
    14:00 +3°C° 0 mm 7 m/s 754 mmHg 86%
    15:00 +2°C° 0 mm 7 m/s 754 mmHg 85%
    16:00 +2°C° 0 mm 6 m/s 754 mmHg 84%
    17:00 +2°C° 0 mm 6 m/s 755 mmHg 83%
    18:00 +2°C° 0 mm 6 m/s 755 mmHg 83%
    19:00 +2°C° 0 mm 6 m/s 755 mmHg 82%
    20:00 +3°C° 0.1 mm 6 m/s 755 mmHg 85%
    21:00 +3°C° 0.1 mm 7 m/s 755 mmHg 87%
    22:00 +3°C° 0.1 mm 7 m/s 755 mmHg 90%
    23:00 +3°C° 0.1 mm 7 m/s 756 mmHg 88%

    23 Noiembrie, Sâmbătă

    Timp Temperatura Precipitaţii Vânt Presiune Umiditate
    00:00 +3°C° 0.1 mm 6 m/s 756 mmHg 85%
    01:00 +3°C° 0.1 mm 6 m/s 756 mmHg 83%
    02:00 +3°C° 0.2 mm 6 m/s 756 mmHg 83%
    03:00 +3°C° 0.2 mm 5 m/s 756 mmHg 83%
    04:00 +4°C° 0.2 mm 4 m/s 756 mmHg 83%
    05:00 +4°C° 0 mm 4 m/s 756 mmHg 82%
    06:00 +4°C° 0 mm 4 m/s 756 mmHg 81%
    07:00 +4°C° 0 mm 3 m/s 756 mmHg 80%
    08:00 +4°C° 0 mm 3 m/s 756 mmHg 81%
    09:00 +4°C° 0 mm 4 m/s 756 mmHg 83%
    10:00 +4°C° 0 mm 4 m/s 756 mmHg 84%
    11:00 +4°C° 0 mm 4 m/s 756 mmHg 85%
    12:00 +4°C° 0 mm 4 m/s 756 mmHg 85%
    13:00 +4°C° 0 mm 4 m/s 756 mmHg 85%
    14:00 +4°C° 0 mm 4 m/s 756 mmHg 84%
    15:00 +2°C° 0 mm 5 m/s 755 mmHg 82%
    16:00 +2°C° 0 mm 5 m/s 755 mmHg 80%
    17:00 +2°C° 0 mm 5 m/s 755 mmHg 79%
    18:00 +2°C° 0 mm 5 m/s 755 mmHg 78%
    19:00 +2°C° 0 mm 5 m/s 755 mmHg 77%
    20:00 +2°C° 0 mm 6 m/s 754 mmHg 76%
    21:00 +2°C° 0 mm 7 m/s 754 mmHg 76%
    22:00 +2°C° 0 mm 7 m/s 753 mmHg 75%
    23:00 +2°C° 0 mm 7 m/s 753 mmHg 77%

    24 Noiembrie, Duminică

    Timp Temperatura Precipitaţii Vânt Presiune Umiditate
    00:00 +2°C° 0 mm 7 m/s 753 mmHg 79%
    01:00 +2°C° 0 mm 7 m/s 752 mmHg 81%
    02:00 +2°C° 0 mm 7 m/s 752 mmHg 82%
    03:00 +2°C° 0 mm 6 m/s 752 mmHg 83%
    04:00 +2°C° 0 mm 5 m/s 752 mmHg 84%
    05:00 +2°C° 0 mm 5 m/s 752 mmHg 83%
    06:00 +2°C° 0 mm 5 m/s 752 mmHg 82%
    07:00 +1°C° 0 mm 6 m/s 753 mmHg 82%
    08:00 +2°C° 0 mm 5 m/s 753 mmHg 80%
    09:00 +2°C° 0 mm 5 m/s 753 mmHg 78%
    10:00 +2°C° 0 mm 5 m/s 753 mmHg 76%
    11:00 +2°C° 0 mm 5 m/s 753 mmHg 76%
    12:00 +2°C° 0 mm 5 m/s 753 mmHg 75%
    13:00 +3°C° 0 mm 5 m/s 753 mmHg 74%
    14:00 +2°C° 0 mm 5 m/s 753 mmHg 74%
    15:00 +2°C° 0 mm 5 m/s 753 mmHg 74%
    16:00 +3°C° 0 mm 4 m/s 753 mmHg 74%
    17:00 +3°C° 0 mm 4 m/s 753 mmHg 73%
    18:00 +3°C° 0 mm 4 m/s 753 mmHg 72%
    19:00 +2°C° 0 mm 5 m/s 754 mmHg 72%
    20:00 +1°C° 0 mm 5 m/s 754 mmHg 73%
    21:00 +1°C° 0 mm 5 m/s 754 mmHg 75%
    22:00 +1°C° 0 mm 6 m/s 754 mmHg 76%
    23:00 +1°C° 0 mm 6 m/s 753 mmHg 75%

    25 Noiembrie, Luni

    Timp Temperatura Precipitaţii Vânt Presiune Umiditate
    00:00 +1°C° 0 mm 6 m/s 753 mmHg 74%
    01:00 +1°C° 0 mm 6 m/s 753 mmHg 73%
    02:00 -1°C° 0 mm 6 m/s 753 mmHg 74%
    03:00 -1°C° 0 mm 7 m/s 753 mmHg 75%
    04:00 -1°C° 0 mm 7 m/s 753 mmHg 76%
    05:00 -1°C° 0 mm 7 m/s 753 mmHg 78%
    06:00 -1°C° 0 mm 8 m/s 753 mmHg 79%
    07:00 -1°C° 0 mm 8 m/s 753 mmHg 81%
    08:00 -1°C° 0 mm 8 m/s 753 mmHg 81%
    09:00 -1°C° 0 mm 8 m/s 753 mmHg 81%
    10:00 0°C° 0 mm 8 m/s 754 mmHg 81%
    11:00 0°C° 0 mm 8 m/s 754 mmHg 82%
    12:00 0°C° 0 mm 8 m/s 754 mmHg 82%
    13:00 0°C° 0 mm 8 m/s 754 mmHg 83%
    14:00 0°C° 0 mm 8 m/s 754 mmHg 84%
    15:00 -1°C° 0 mm 8 m/s 754 mmHg 84%
    16:00 -1°C° 0 mm 8 m/s 754 mmHg 85%
    17:00 -1°C° 0 mm 9 m/s 754 mmHg 86%
    18:00 -1°C° 0 mm 9 m/s 754 mmHg 86%
    19:00 -1°C° 0 mm 9 m/s 754 mmHg 87%
    20:00 -1°C° 0 mm 9 m/s 754 mmHg 87%
    21:00 -1°C° 0 mm 8 m/s 754 mmHg 87%
    22:00 -1°C° 0 mm 8 m/s 754 mmHg 87%
    23:00 -1°C° 0 mm 8 m/s 754 mmHg 87%
    Arată mai mult